Flag for Germany Weather past 2 weeks in Güstrow, Mecklenburg-Western Pomerania, Germany

Now
66 °F

Partly cloudy.


Feels Like: 66 °F
Forecast: 53 / 80 °F
Wind: 16 mph from West

Location: Laage

Current Time: Jul 6, 2015 at 4:56:07 AM

Latest Report: Jul 6, 2015 at 4:20 AM


Visibility: N/A

Pressure: 29.95 "Hg

Humidity: 88%

Dew point: 63 °F

Location of GüstrowLocation

Historic Weather in Güstrow — Graph

°F

Güstrow temperature yesterday

Maximum temperature yesterday: 90 °F (at 3:20 PM)
Minimum temperature yesterday: 66 °F (at 5:20 AM)
Average temperature yesterday: 78 °F

Past Weeks' High & Low Weather Summary

 TemperatureHumidityPressure
High95 °F (Jul 4, 3:20 PM)100% (Jun 21, 3:20 AM)30.30 "Hg (Jun 21, 3:20 AM)
Low48 °F (Jun 21, 3:20 AM)33% (Jul 3, 2:45 PM)29.59 "Hg (Jun 23, 1:20 AM)
Average64 °F73%30.04 "Hg
* Reported Jun 21 3:20 AM — Jul 6 3:20 AM, Güstrow, Weather by CustomWeather, © 2015

Note: Actual official high and low records may vary slightly from our data, if they occured in-between our weather recording intervals... More about our weather records

Advertising

Güstrow weather history for previous 24 hours

 ConditionsComfort  
Time TempWeatherWind HumidityBarometerVisibility
3:20 AM
Mon, Jul 6
68 °FLight rain. Partly cloudy.8 mph94%29.92 "Hg6 mi
2:20 AM68 °FPassing clouds.8 mph94%29.89 "HgN/A
1:20 AM68 °FMostly cloudy.7 mph94%29.89 "HgN/A
12:20 AM68 °FPartly cloudy.7 mph94%29.89 "HgN/A
11:20 PM
Sun, Jul 5
68 °FThunderstorms. Passing clouds.7 mph94%29.89 "HgN/A
10:20 PM68 °FStrong thunderstorms. Partly sunny.21 mph94%29.95 "Hg2 mi
10:04 PM70 °FStrong thunderstorms. Partly sunny.26 mph88%29.95 "Hg1 mi
9:20 PM79 °FLight rain. More clouds than sun.10 mph74%29.86 "HgN/A
8:20 PM81 °FBroken clouds.10 mph70%29.89 "HgN/A
7:20 PM84 °FBroken clouds.10 mph62%29.89 "HgN/A
6:20 PM88 °FBroken clouds.9 mph55%29.92 "HgN/A
5:20 PM90 °FPartly sunny.3 mph41%29.95 "HgN/A
4:20 PM90 °FBroken clouds.5 mph41%29.98 "HgN/A
3:20 PM90 °FPartly sunny.5 mph41%29.98 "HgN/A
2:20 PM86 °FPartly sunny.5 mph46%30.01 "HgN/A
1:20 PM88 °FPartly sunny.3 mph46%30.01 "HgN/A
12:20 PM88 °FScattered clouds.2 mph46%30.01 "HgN/A
11:20 AM84 °FPartly sunny.3 mph55%30.04 "HgN/A
10:20 AM82 °FScattered clouds.1 mph58%30.04 "HgN/A
9:20 AM79 °FScattered clouds.No wind65%30.07 "HgN/A
8:20 AM73 °FScattered clouds.3 mph78%30.07 "HgN/A
7:20 AM70 °FScattered clouds.3 mph88%30.07 "HgN/A
6:20 AM66 °FScattered clouds.3 mph94%30.07 "HgN/A
5:20 AM66 °FPassing clouds.2 mph94%30.07 "HgN/A
4:20 AM68 °FPassing clouds.2 mph88%30.04 "HgN/A
Weather by CustomWeather, © 2015

See weather overviewHow to use our weather pages